Time,TemperatureF,DewpointF,PressureIn,WindDirection,WindDirectionDegrees,WindSpeedMPH,WindSpeedGustMPH,Humidity,HourlyPrecipIn,Conditions,Clouds,dailyrainin,SolarRadiationWatts/m^2,SoftwareType,DateUTC
2013-02-09 00:32:00,-1.0,-5.0,-100.00,SSW,213,2.0,4.0,82,-99.99,,,0.00,0.000000,,2013-02-09 06:32:00,
2013-02-09 01:22:00,0.0,-5.0,-100.00,WNW,283,1.0,5.0,77,-99.99,,,0.00,0.000000,,2013-02-09 07:22:00,
2013-02-09 01:32:00,0.0,-5.0,-100.00,WNW,283,1.0,5.0,77,-99.99,,,0.00,0.000000,,2013-02-09 07:32:00,
2013-02-09 02:01:00,13.0,7.0,-100.00,SW,216,5.0,9.0,76,-99.99,,,0.00,0.000000,,2013-02-09 08:01:00,
2013-02-09 02:32:00,13.0,7.0,-100.00,SW,216,5.0,9.0,76,-99.99,,,0.00,0.000000,,2013-02-09 08:32:00,
2013-02-09 02:42:00,13.0,7.0,-100.00,SW,216,5.0,9.0,76,-99.99,,,0.00,0.000000,,2013-02-09 08:42:00,
2013-02-09 02:52:00,13.0,7.0,-100.00,SW,216,5.0,9.0,76,-99.99,,,0.00,0.000000,,2013-02-09 08:52:00,
2013-02-09 03:01:00,13.0,5.0,-100.00,SSW,205,6.0,11.0,71,0.00,,,0.00,0.000000,,2013-02-09 09:01:00,
2013-02-09 03:32:00,13.0,5.0,-100.00,SSW,205,6.0,11.0,71,0.00,,,0.00,0.000000,,2013-02-09 09:32:00,
2013-02-09 03:42:00,13.0,5.0,-100.00,SSW,205,6.0,11.0,71,0.00,,,0.00,0.000000,,2013-02-09 09:42:00,
2013-02-09 03:52:00,13.0,5.0,-100.00,SSW,205,6.0,11.0,71,0.00,,,0.00,0.000000,,2013-02-09 09:52:00,
2013-02-09 04:01:00,13.0,6.0,-100.00,SSW,208,6.0,16.0,74,0.00,,,0.00,0.000000,,2013-02-09 10:01:00,
2013-02-09 04:32:00,13.0,6.0,-100.00,SSW,208,6.0,16.0,74,0.00,,,0.00,0.000000,,2013-02-09 10:32:00,
2013-02-09 04:42:00,13.0,6.0,-100.00,SSW,208,6.0,16.0,74,0.00,,,0.00,0.000000,,2013-02-09 10:42:00,
2013-02-09 04:52:00,13.0,6.0,-100.00,SSW,208,6.0,16.0,74,0.00,,,0.00,0.000000,,2013-02-09 10:52:00,
2013-02-09 05:01:00,13.0,7.0,-100.00,SSW,209,8.0,17.0,77,0.00,,,0.00,0.000000,,2013-02-09 11:01:00,
2013-02-09 05:32:00,13.0,7.0,-100.00,SSW,209,8.0,17.0,77,0.00,,,0.00,0.000000,,2013-02-09 11:32:00,
2013-02-09 05:42:00,13.0,7.0,-100.00,SSW,209,8.0,17.0,77,0.00,,,0.00,0.000000,,2013-02-09 11:42:00,
2013-02-09 05:52:00,13.0,7.0,-100.00,SSW,209,8.0,17.0,77,0.00,,,0.00,0.000000,,2013-02-09 11:52:00,
2013-02-09 06:01:00,14.0,8.0,-100.00,SSW,199,7.0,16.0,78,0.00,,,0.00,0.000000,,2013-02-09 12:01:00,
2013-02-09 06:32:00,14.0,8.0,-100.00,SSW,199,7.0,16.0,78,0.00,,,0.00,0.000000,,2013-02-09 12:32:00,
2013-02-09 06:42:00,14.0,8.0,-100.00,SSW,199,7.0,16.0,78,0.00,,,0.00,0.000000,,2013-02-09 12:42:00,
2013-02-09 06:52:00,14.0,8.0,-100.00,SSW,199,7.0,16.0,78,0.00,,,0.00,0.000000,,2013-02-09 12:52:00,
2013-02-09 07:01:00,14.0,8.0,-100.00,SSW,203,8.0,15.0,75,0.00,,,0.00,0.000000,,2013-02-09 13:01:00,
2013-02-09 07:32:00,14.0,8.0,-100.00,SSW,203,8.0,15.0,75,0.00,,,0.00,0.000000,,2013-02-09 13:32:00,
2013-02-09 07:42:00,14.0,8.0,-100.00,SSW,203,8.0,15.0,75,0.00,,,0.00,0.000000,,2013-02-09 13:42:00,
2013-02-09 07:52:00,14.0,8.0,-100.00,SSW,203,8.0,15.0,75,0.00,,,0.00,0.000000,,2013-02-09 13:52:00,
2013-02-09 09:01:00,18.0,11.0,-100.00,SSW,203,9.0,18.0,73,-99.99,,,0.00,61.000000,,2013-02-09 15:01:00,
2013-02-09 09:32:00,18.0,11.0,-100.00,SSW,203,9.0,18.0,73,-99.99,,,0.00,61.000000,,2013-02-09 15:32:00,
2013-02-09 09:42:00,18.0,11.0,-100.00,SSW,203,9.0,18.0,73,-99.99,,,0.00,61.000000,,2013-02-09 15:42:00,
2013-02-09 09:52:00,18.0,11.0,-100.00,SSW,203,9.0,18.0,73,-99.99,,,0.00,61.000000,,2013-02-09 15:52:00,
2013-02-09 10:01:00,21.0,11.0,-100.00,SW,215,10.0,19.0,65,0.00,,,0.00,118.000000,,2013-02-09 16:01:00,
2013-02-09 10:32:00,21.0,11.0,-100.00,SW,215,10.0,19.0,65,0.00,,,0.00,118.000000,,2013-02-09 16:32:00,
2013-02-09 10:42:00,21.0,11.0,-100.00,SW,215,10.0,19.0,65,0.00,,,0.00,118.000000,,2013-02-09 16:42:00,
2013-02-09 10:52:00,21.0,11.0,-100.00,SW,215,10.0,19.0,65,0.00,,,0.00,118.000000,,2013-02-09 16:52:00,
2013-02-09 11:01:00,22.0,12.0,-100.00,SSW,203,10.0,18.0,66,0.00,,,0.00,169.000000,,2013-02-09 17:01:00,
2013-02-09 11:22:00,22.0,12.0,-100.00,SSW,203,10.0,18.0,66,0.00,,,0.00,169.000000,,2013-02-09 17:22:00,
2013-02-09 11:32:00,22.0,12.0,-100.00,SSW,203,10.0,18.0,66,0.00,,,0.00,169.000000,,2013-02-09 17:32:00,
2013-02-09 11:42:00,22.0,12.0,-100.00,SSW,203,10.0,18.0,66,0.00,,,0.00,169.000000,,2013-02-09 17:42:00,
2013-02-09 11:52:00,22.0,12.0,-100.00,SSW,203,10.0,18.0,66,0.00,,,0.00,169.000000,,2013-02-09 17:52:00,
2013-02-09 12:01:00,24.0,14.0,-100.00,SSW,207,7.0,20.0,64,0.00,,,0.00,242.000000,,2013-02-09 18:01:00,
2013-02-09 12:23:00,24.0,14.0,-100.00,SSW,207,7.0,20.0,64,0.00,,,0.00,242.000000,,2013-02-09 18:23:00,
2013-02-09 12:32:00,24.0,14.0,-100.00,SSW,207,7.0,20.0,64,0.00,,,0.00,242.000000,,2013-02-09 18:32:00,
2013-02-09 12:42:00,24.0,14.0,-100.00,SSW,207,7.0,20.0,64,0.00,,,0.00,242.000000,,2013-02-09 18:42:00,
2013-02-09 12:52:00,24.0,14.0,-100.00,SSW,207,7.0,20.0,64,0.00,,,0.00,242.000000,,2013-02-09 18:52:00,
2013-02-09 13:01:00,27.0,15.0,-100.00,SSW,207,9.0,17.0,60,0.00,,,0.00,339.000000,,2013-02-09 19:01:00,
2013-02-09 13:32:00,27.0,15.0,-100.00,SSW,207,9.0,17.0,60,0.00,,,0.00,339.000000,,2013-02-09 19:32:00,
2013-02-09 13:42:00,27.0,15.0,-100.00,SSW,207,9.0,17.0,60,0.00,,,0.00,339.000000,,2013-02-09 19:42:00,
2013-02-09 13:52:00,27.0,15.0,-100.00,SSW,207,9.0,17.0,60,0.00,,,0.00,339.000000,,2013-02-09 19:52:00,
2013-02-09 14:01:00,29.0,16.0,-100.00,SW,221,9.0,14.0,57,0.00,,,0.00,380.000000,,2013-02-09 20:01:00,
2013-02-09 14:22:00,29.0,16.0,-100.00,SW,221,9.0,14.0,57,0.00,,,0.00,380.000000,,2013-02-09 20:22:00,
2013-02-09 14:32:00,29.0,16.0,-100.00,SW,221,9.0,14.0,57,0.00,,,0.00,380.000000,,2013-02-09 20:32:00,
2013-02-09 14:42:00,29.0,16.0,-100.00,SW,221,9.0,14.0,57,0.00,,,0.00,380.000000,,2013-02-09 20:42:00,
2013-02-09 14:52:00,29.0,16.0,-100.00,SW,221,9.0,14.0,57,0.00,,,0.00,380.000000,,2013-02-09 20:52:00,
2013-02-09 15:01:00,29.0,16.0,-100.00,SW,228,8.0,15.0,59,0.00,,,0.00,322.000000,,2013-02-09 21:01:00,
2013-02-09 15:32:00,29.0,16.0,-100.00,SW,228,8.0,15.0,59,0.00,,,0.00,322.000000,,2013-02-09 21:32:00,
2013-02-09 15:42:00,29.0,16.0,-100.00,SW,228,8.0,15.0,59,0.00,,,0.00,322.000000,,2013-02-09 21:42:00,
2013-02-09 15:52:00,29.0,16.0,-100.00,SW,228,8.0,15.0,59,0.00,,,0.00,322.000000,,2013-02-09 21:52:00,
2013-02-09 16:01:00,24.0,14.0,-100.00,WSW,242,9.0,15.0,66,0.00,,,0.00,193.000000,,2013-02-09 22:01:00,
2013-02-09 16:32:00,24.0,14.0,-100.00,WSW,242,9.0,15.0,66,0.00,,,0.00,193.000000,,2013-02-09 22:32:00,
2013-02-09 16:42:00,24.0,14.0,-100.00,WSW,242,9.0,15.0,66,0.00,,,0.00,193.000000,,2013-02-09 22:42:00,
2013-02-09 16:52:00,24.0,14.0,-100.00,WSW,242,9.0,15.0,66,0.00,,,0.00,193.000000,,2013-02-09 22:52:00,
2013-02-09 17:01:00,21.0,16.0,-100.00,SW,236,4.0,14.0,80,0.00,,,0.00,30.000000,,2013-02-09 23:01:00,
2013-02-09 17:32:00,21.0,16.0,-100.00,SW,236,4.0,14.0,80,0.00,,,0.00,30.000000,,2013-02-09 23:32:00,
2013-02-09 17:42:00,21.0,16.0,-100.00,SW,236,4.0,14.0,80,0.00,,,0.00,30.000000,,2013-02-09 23:42:00,
2013-02-09 17:52:00,21.0,16.0,-100.00,SW,236,4.0,14.0,80,0.00,,,0.00,30.000000,,2013-02-09 23:52:00,
2013-02-09 18:01:00,21.0,15.0,-100.00,SW,214,4.0,10.0,78,0.00,,,0.00,1.000000,,2013-02-10 00:01:00,
2013-02-09 18:32:00,21.0,15.0,-100.00,SW,214,4.0,10.0,78,0.00,,,0.00,1.000000,,2013-02-10 00:32:00,
2013-02-09 18:42:00,21.0,15.0,-100.00,SW,214,4.0,10.0,78,0.00,,,0.00,1.000000,,2013-02-10 00:42:00,
2013-02-09 18:52:00,21.0,15.0,-100.00,SW,214,4.0,10.0,78,0.00,,,0.00,1.000000,,2013-02-10 00:52:00,
2013-02-09 19:01:00,19.0,16.0,-100.00,SW,226,6.0,11.0,86,0.00,,,0.00,0.000000,,2013-02-10 01:01:00,
2013-02-09 19:32:00,19.0,16.0,-100.00,SW,226,6.0,11.0,86,0.00,,,0.00,0.000000,,2013-02-10 01:32:00,
2013-02-09 19:42:00,19.0,16.0,-100.00,SW,226,6.0,11.0,86,0.00,,,0.00,0.000000,,2013-02-10 01:42:00,
2013-02-09 19:52:00,19.0,16.0,-100.00,SW,226,6.0,11.0,86,0.00,,,0.00,0.000000,,2013-02-10 01:52:00,
2013-02-09 20:01:00,18.0,15.0,-100.00,SW,215,4.0,9.0,89,0.00,,,0.00,0.000000,,2013-02-10 02:01:00,
2013-02-09 20:32:00,18.0,15.0,-100.00,SW,215,4.0,9.0,89,0.00,,,0.00,0.000000,,2013-02-10 02:32:00,
2013-02-09 20:42:00,18.0,15.0,-100.00,SW,215,4.0,9.0,89,0.00,,,0.00,0.000000,,2013-02-10 02:42:00,
2013-02-09 20:52:00,18.0,15.0,-100.00,SW,215,4.0,9.0,89,0.00,,,0.00,0.000000,,2013-02-10 02:52:00,
2013-02-09 21:01:00,18.0,16.0,-100.00,SW,226,1.0,6.0,91,0.00,,,0.00,0.000000,,2013-02-10 03:01:00,
2013-02-09 21:22:00,18.0,16.0,-100.00,SW,226,1.0,6.0,91,0.00,,,0.00,0.000000,,2013-02-10 03:22:00,
2013-02-09 21:32:00,18.0,16.0,-100.00,SW,226,1.0,6.0,91,0.00,,,0.00,0.000000,,2013-02-10 03:32:00,
2013-02-09 21:42:00,18.0,16.0,-100.00,SW,226,1.0,6.0,91,0.00,,,0.00,0.000000,,2013-02-10 03:42:00,
2013-02-09 21:52:00,18.0,16.0,-100.00,SW,226,1.0,6.0,91,0.00,,,0.00,0.000000,,2013-02-10 03:52:00,
2013-02-09 22:01:00,19.0,17.0,-100.00,South,186,3.0,5.0,92,0.00,,,0.00,0.000000,,2013-02-10 04:01:00,
2013-02-09 22:22:00,19.0,17.0,-100.00,South,186,3.0,5.0,92,0.00,,,0.00,0.000000,,2013-02-10 04:22:00,
2013-02-09 22:32:00,19.0,17.0,-100.00,South,186,3.0,5.0,92,0.00,,,0.00,0.000000,,2013-02-10 04:32:00,
2013-02-09 22:42:00,19.0,17.0,-100.00,South,186,3.0,5.0,92,0.00,,,0.00,0.000000,,2013-02-10 04:42:00,
2013-02-09 22:52:00,19.0,17.0,-100.00,South,186,3.0,5.0,92,0.00,,,0.00,0.000000,,2013-02-10 04:52:00,
2013-02-09 23:01:00,19.0,17.0,-100.00,South,181,3.0,5.0,93,0.00,,,0.00,0.000000,,2013-02-10 05:01:00,
2013-02-09 23:23:00,19.0,17.0,-100.00,South,181,3.0,5.0,93,0.00,,,0.00,0.000000,,2013-02-10 05:23:00,
2013-02-09 23:32:00,19.0,17.0,-100.00,South,181,3.0,5.0,93,0.00,,,0.00,0.000000,,2013-02-10 05:32:00,
2013-02-09 23:42:00,19.0,17.0,-100.00,South,181,3.0,5.0,93,0.00,,,0.00,0.000000,,2013-02-10 05:42:00,
2013-02-09 23:52:00,19.0,17.0,-100.00,South,181,3.0,5.0,93,0.00,,,0.00,0.000000,,2013-02-10 05:52:00,